Regional Weather Roundup
Issued by NWS Northern Indiana

Home | Current Version | Previous Version | Graphics & Text | Print | Product List | Glossary Off
Versions: 1 2 3 4 5 6 7 8 9 10 11 12 13 14 15 16 17 18 19 20 21 22 23 24 25 26 27 28 29 30 31 32 33 34 35 36 37 38 39 40 41 42 43 44 45 46 47 48 49 50

000
ASUS43 KIWX 291210
RWRIWX

KIWX WEATHER ROUNDUP
NATIONAL WEATHER SERVICE NORTHERN INDIANA
800 AM EDT TUE JUL 29 2014

NOTE: "FAIR" INDICATES FEW OR NO CLOUDS BELOW 12,000 FEET WITH NO
SIGNIFICANT WEATHER AND/OR OBSTRUCTIONS TO VISIBILITY.

* THESE STATIONS ARE NOT UNDER NWS QUALITY CONTROL. THEY ALSO MAY NOT
  REPORT WEATHER SUCH AS PRECIPITATION OR FOG.

INZ001>027-291300-
NORTHERN INDIANA

CITY           SKY/WX    TMP DP  RH WIND       PRES   REMARKS
GARY*          MOSUNNY   57  54  88 SW5       30.06
VALPARAISO     MOSUNNY   54  51  90 SW5       30.06R
6HR MIN TEMP:  51; 6HR MAX TEMP:  58;

MICHIGAN CITY* MOSUNNY   54  52  94 SW3       30.05S
LAPORTE*       MOSUNNY   53  53 100 SW5       30.05S
6HR MIN TEMP:  48; 6HR MAX TEMP:  57;

KNOX*          SUNNY     49  47  93 CALM      30.05R
6HR MIN TEMP:  44; 6HR MAX TEMP:  86;

SOUTH BEND     PTSUNNY   53  50  89 SW6       30.05R
6HR MIN TEMP:  50; 6HR MAX TEMP:  55;

GOSHEN         SUNNY     51  49  92 S5        30.05R
6HR MIN TEMP:  49; 6HR MAX TEMP:  51;

MONTICELLO*    SUNNY     52  51  97 CALM      30.06R
6HR MIN TEMP:  50; 6HR MAX TEMP:  54;

LOGANSPORT*    SUNNY     52  50  93 CALM      30.07S
ROCHESTER*     SUNNY     55  52  88 CALM      30.07R
WARSAW*        SUNNY     50  50 100 CALM      30.06R
ANGOLA*        SUNNY     52  48  87 CALM      30.04S
FORT WAYNE     SUNNY     51  49  92 W3        30.06S
6HR MIN TEMP:  48; 6HR MAX TEMP:  53;

HUNTINGTON*    SUNNY     50  48  95 CALM      30.06R
6HR MIN TEMP:  47; 6HR MAX TEMP:  51;

PERU/GRISSOM   SUNNY     52  52 100 SW3       30.06S
6HR MIN TEMP:  49; 6HR MAX TEMP:  55;

MARION*        SUNNY     48  47  97 CALM      30.08R
6HR MIN TEMP:  32; 6HR MAX TEMP:  89;


$$
INZ028>050-291300-
CENTRAL INDIANA

CITY           SKY/WX    TMP DP  RH WIND       PRES   REMARKS
LAFAYETTE      SUNNY     53  51  93 CALM      30.08R
6HR MIN TEMP:  50; 6HR MAX TEMP:  53;

KOKOMO*        SUNNY     54  50  87 CALM      30.07S
6HR MIN TEMP:  50; 6HR MAX TEMP:  54;

MUNCIE*        SUNNY     51  48  89 CALM      30.07R
6HR MIN TEMP:  47; 6HR MAX TEMP:  51;

INDIANAPOLIS   MOSUNNY   56  50  80 W3        30.07R
6HR MIN TEMP:  52; 6HR MAX TEMP:  56;


$$
MIZ043>046-050>051-056>058-064>065-071>073-077>080-291300-
SOUTHWEST LOWER MICHIGAN

CITY           SKY/WX    TMP DP  RH WIND       PRES   REMARKS
BATTLE CREEK   CLOUDY    54  50  86 SW3       30.03R
6HR MIN TEMP:  51; 6HR MAX TEMP:  54;

BENTON HARBOR  PTSUNNY   52  51  97 CALM      30.03R
6HR MIN TEMP:  45; 6HR MAX TEMP:  52;

COLDWATER*     SUNNY     52  51  96 SW3       30.04R
6HR MIN TEMP:  48; 6HR MAX TEMP:  52;

HILLSDALE*     SUNNY     53  53  99 CALM      30.03R
6HR MIN TEMP:  46; 6HR MAX TEMP:  53;

HOLLAND        CLOUDY    58  55  90 S3        30.01S
6HR MIN TEMP:  50; 6HR MAX TEMP:  58; 6HR PCP: TRACE;

GRAND RAPIDS   CLOUDY    57  52  83 SW5       30.01S
6HR MIN TEMP:  52; 6HR MAX TEMP:  57;

KALAMAZOO      CLOUDY    53  49  86 CALM      30.03R
6HR MIN TEMP:  47; 6HR MAX TEMP:  53;

STURGIS*       MOSUNNY   48  48 100 CALM      30.04R
THREE RIVERS*  PTSUNNY   52  52 100 S5        30.04S

$$
OHZ001>008-015>018-024>025-291300-
NORTHWEST OHIO

CITY           SKY/WX    TMP DP  RH WIND       PRES   REMARKS
WAUSEON*       FAIR      52  50  93 CALM      30.03S
DEFIANCE       SUNNY     51  49  92 S3        30.04R
6HR MIN TEMP:  47; 6HR MAX TEMP:  56;

FINDLAY        SUNNY     53  49  86 W5        30.03R
6HR MIN TEMP:  49; 6HR MAX TEMP:  60;

TOLEDO EXPRESS SUNNY     53  48  83 W5        30.02S
6HR MIN TEMP:  49; 6HR MAX TEMP:  53;

TOLEDO METCALF SUNNY     55  49  80 W6        30.03R
6HR MIN TEMP:  51; 6HR MAX TEMP:  55;

LIMA           SUNNY     54  51  90 NW3       30.04R
6HR MIN TEMP:  51; 6HR MAX TEMP:  57;


$$
&&


USA.gov is the U.S. government's official web portal to all federal, state and local government web resources and services.